QPF
0.00 0.00 0.00 0.00 0.00 0.00 0.00 0.00 0.01 0.01 0.00 0.00 0.00 0.00 0.00 0.00 0.00 0.05 0.01 0.00 0.00 0.00 0.00 0.00 0.00 0.00 0.00 0.00 0.00 0.01 0.02 0.03 0.04 0.04 0.03 0.03 0.03 0.03 0.02 0.02 0.02 0.02 0.02 0.03 0.02 0.01 0.01 0.01 0.00
0.00 0.00 0.00 0.00 0.00 0.00 0.00 0.00 0.00 0.00 0.00 0.00 0.00 0.00 0.00 0.00 0.00 0.00 0.00 0.00 0.00 0.00 0.00 0.00 0.00 0.00 0.00 0.00 0.00 0.01 0.02 0.03 0.03 0.04 0.04 0.04 0.04 0.04 0.03 0.02 0.02 0.02 0.03 0.02 0.02 0.01 0.01 0.00 0.00
0.00 0.00 0.00 0.00 0.00 0.00 0.00 0.00 0.00 0.00 0.00 0.00 0.00 0.00 0.00 0.00 0.00 0.00 0.00 0.00 0.00 0.00 0.00 0.00 0.00 0.00 0.00 0.00 0.00 0.01 0.02 0.03 0.03 0.04 0.04 0.04 0.03 0.03 0.03 0.03 0.02 0.02 0.02 0.02 0.01 0.01 0.00 0.00 0.00
0.00 0.00 0.00 0.00 0.00 0.00 0.00 0.00 0.00 0.00 0.00 0.00 0.00 0.00 0.00 0.00 0.00 0.00 0.00 0.00 0.00 0.00 0.00 0.00 0.00 0.00 0.00 0.00 0.00 0.01 0.03 0.04 0.05 0.05 0.05 0.04 0.04 0.03 0.03 0.03 0.02 0.02 0.01 0.01 0.01 0.00 0.00 0.00 0.00
0.00 0.00 0.00 0.00 0.00 0.00 0.00 0.00 0.00 0.00 0.00 0.00 0.00 0.00 0.00 0.00 0.00 0.00 0.00 0.00 0.00 0.00 0.00 0.00 0.00 0.00 0.00 0.00 0.01 0.02 0.03 0.05 0.06 0.06 0.05 0.05 0.04 0.03 0.03 0.03 0.02 0.02 0.01 0.01 0.00 0.00 0.00 0.00 0.00
0.00 0.00 0.00 0.00 0.00 0.00 0.00 0.00 0.00 0.00 0.00 0.00 0.00 0.00 0.01 0.00 0.00 0.00 0.00 0.00 0.00 0.00 0.00 0.00 0.00 0.00 0.00 0.00 0.01 0.02 0.03 0.04 0.05 0.05 0.05 0.04 0.03 0.03 0.03 0.02 0.02 0.01 0.01 0.00 0.00 0.00 0.00 0.00 0.00
0.00 0.00 0.00 0.00 0.00 0.00 0.00 0.00 0.00 0.00 0.00 0.00 0.00 0.00 0.00 0.00 0.00 0.00 0.00 0.00 0.00 0.00 0.00 0.00 0.00 0.00 0.00 0.00 0.00 0.01 0.02 0.03 0.03 0.03 0.03 0.02 0.01 0.01 0.01 0.01 0.01 0.01 0.00 0.00 0.00 0.00 0.00 0.00 0.00
0.00 0.00 0.00 0.00 0.00 0.00 0.00 0.00 0.00 0.00 0.00 0.00 0.00 0.00 0.00 0.00 0.00 0.00 0.00 0.00 0.00 0.00 0.00 0.00 0.00 0.00 0.00 0.00 0.00 0.00 0.01 0.01 0.02 0.02 0.01 0.01 0.00 0.00 0.00 0.01 0.01 0.00 0.00 0.00 0.00 0.00 0.00 0.00 0.00
0.00 0.00 0.00 0.00 0.00 0.00 0.00 0.00 0.00 0.00 0.00 0.00 0.00 0.00 0.01 0.00 0.00 0.00 0.00 0.00 0.00 0.00 0.00 0.00 0.00 0.00 0.00 0.00 0.00 0.00 0.00 0.00 0.00 0.00 0.00 0.00 0.01 0.01 0.01 0.01 0.01 0.00 0.00 0.00 0.00 0.00 0.00 0.00 0.00
0.00 0.00 0.00 0.00 0.00 0.00 0.00 0.00 0.00 0.00 0.00 0.00 0.00 0.00 0.00 0.01 0.00 0.00 0.00 0.00 0.00 0.00 0.00 0.00 0.00 0.00 0.00 0.00 0.00 0.00 0.00 0.00 0.00 0.01 0.01 0.00 0.02 0.03 0.04 0.04 0.02 0.01 0.00 0.00 0.00 0.00 0.00 0.00 0.00
0.00 0.00 0.00 0.00 0.00 0.00 0.00 0.00 0.00 0.00 0.00 0.00 0.00 0.00 0.00 0.00 0.00 0.00 0.00 0.00 0.00 0.00 0.00 0.00 0.00 0.00 0.00 0.00 0.00 0.00 0.00 0.01 0.00 0.01 0.02 0.03 0.02 0.02 0.02 0.03 0.03 0.02 0.01 0.01 0.02 0.01 0.00 0.00 0.00
0.00 0.00 0.00 0.00 0.00 0.00 0.00 0.00 0.00 0.00 0.00 0.00 0.00 0.01 0.00 0.00 0.00 0.00 0.00 0.00 0.00 0.00 0.00 0.00 0.00 0.00 0.00 0.00 0.00 0.00 0.00 0.01 0.01 0.02 0.02 0.02 0.03 0.02 0.02 0.03 0.05 0.04 0.04 0.04 0.03 0.03 0.01 0.01 0.01
0.00 0.00 0.00 0.00 0.00 0.00 0.00 0.00 0.00 0.00 0.00 0.00 0.00 0.01 0.01 0.01 0.00 0.00 0.00 0.00 0.00 0.00 0.00 0.00 0.00 0.00 0.00 0.00 0.00 0.00 0.00 0.01 0.01 0.01 0.01 0.02 0.02 0.02 0.02 0.03 0.03 0.04 0.05 0.06 0.05 0.02 0.02 0.03 0.04
0.00 0.00 0.00 0.00 0.00 0.00 0.00 0.00 0.00 0.00 0.00 0.00 0.01 0.01 0.01 0.01 0.01 0.00 0.00 0.00 0.00 0.00 0.00 0.00 0.00 0.00 0.00 0.00 0.00 0.00 0.00 0.01 0.01 0.01 0.01 0.01 0.03 0.04 0.05 0.04 0.04 0.03 0.05 0.06 0.06 0.03 0.03 0.04 0.07
0.00 0.00 0.00 0.00 0.00 0.00 0.00 0.00 0.00 0.00 0.00 0.00 0.00 0.01 0.01 0.00 0.00 0.00 0.00 0.00 0.00 0.00 0.00 0.00 0.00 0.00 0.00 0.00 0.00 0.01 0.00 0.01 0.01 0.02 0.02 0.01 0.03 0.05 0.06 0.08 0.07 0.07 0.07 0.07 0.05 0.05 0.05 0.08 0.09
0.00 0.00 0.00 0.00 0.00 0.00 0.00 0.00 0.00 0.00 0.00 0.00 0.00 0.00 0.00 0.00 0.00 0.01 0.01 0.00 0.00 0.00 0.00 0.00 0.00 0.00 0.00 0.01 0.01 0.01 0.01 0.02 0.02 0.04 0.04 0.02 0.03 0.06 0.09 0.11 0.11 0.10 0.10 0.09 0.09 0.07 0.07 0.08 0.07
0.00 0.00 0.00 0.00 0.00 0.00 0.00 0.00 0.00 0.00 0.00 0.00 0.00 0.00 0.00 0.00 0.00 0.02 0.02 0.01 0.00 0.00 0.00 0.00 0.00 0.00 0.00 0.01 0.01 0.01 0.02 0.03 0.04 0.05 0.06 0.06 0.06 0.07 0.09 0.10 0.12 0.15 0.15 0.12 0.08 0.06 0.08 0.10 0.10
0.00 0.00 0.00 0.00 0.00 0.00 0.00 0.00 0.00 0.00 0.00 0.00 0.00 0.00 0.00 0.00 0.00 0.00 0.01 0.01 0.00 0.00 0.00 0.01 0.01 0.01 0.01 0.01 0.01 0.01 0.02 0.03 0.04 0.04 0.05 0.06 0.06 0.07 0.09 0.09 0.11 0.11 0.12 0.11 0.10 0.10 0.09 0.10 0.10
0.00 0.00 0.00 0.00 0.00 0.00 0.00 0.00 0.00 0.00 0.00 0.00 0.00 0.00 0.00 0.00 0.00 0.00 0.01 0.01 0.02 0.01 0.01 0.02 0.02 0.01 0.01 0.02 0.03 0.03 0.04 0.05 0.05 0.05 0.05 0.07 0.07 0.08 0.10 0.11 0.11 0.11 0.11 0.13 0.14 0.13 0.11 0.10 0.09
0.00 0.00 0.00 0.00 0.00 0.00 0.00 0.00 0.00 0.00 0.00 0.00 0.00 0.00 0.00 0.01 0.01 0.00 0.00 0.01 0.03 0.02 0.01 0.02 0.03 0.03 0.02 0.03 0.04 0.06 0.08 0.10 0.11 0.11 0.09 0.08 0.09 0.09 0.10 0.12 0.11 0.11 0.11 0.12 0.12 0.12 0.12 0.13 0.11
0.00 0.00 0.00 0.00 0.00 0.00 0.00 0.00 0.00 0.00 0.00 0.00 0.00 0.00 0.00 0.00 0.01 0.02 0.03 0.03 0.04 0.04 0.03 0.04 0.08 0.08 0.06 0.07 0.09 0.12 0.14 0.15 0.15 0.13 0.12 0.10 0.08 0.07 0.09 0.10 0.11 0.12 0.12 0.14 0.15 0.14 0.13 0.12 0.10
0.00 0.00 0.00 0.00 0.00 0.00 0.00 0.00 0.00 0.00 0.00 0.00 0.00 0.00 0.00 0.00 0.00 0.01 0.06 0.07 0.04 0.06 0.06 0.09 0.13 0.14 0.12 0.11 0.12 0.14 0.14 0.13 0.13 0.13 0.13 0.11 0.08 0.07 0.06 0.07 0.08 0.09 0.11 0.12 0.11 0.10 0.09 0.07 0.06
0.00 0.00 0.00 0.00 0.00 0.00 0.00 0.00 0.00 0.00 0.00 0.00 0.00 0.00 0.00 0.00 0.00 0.00 0.02 0.05 0.03 0.04 0.06 0.10 0.14 0.15 0.15 0.15 0.15 0.12 0.11 0.12 0.14 0.13 0.10 0.07 0.06 0.05 0.05 0.05 0.06 0.07 0.07 0.07 0.06 0.05 0.04 0.04 0.04
0.00 0.00 0.00 0.00 0.00 0.00 0.00 0.00 0.00 0.00 0.00 0.00 0.00 0.00 0.00 0.00 0.00 0.01 0.01 0.01 0.02 0.07 0.10 0.09 0.11 0.14 0.18 0.20 0.18 0.15 0.13 0.13 0.14 0.13 0.07 0.05 0.05 0.05 0.04 0.03 0.03 0.03 0.02 0.02 0.02 0.02 0.02 0.02 0.02
0.00 0.00 0.00 0.00 0.00 0.00 0.00 0.00 0.01 0.01 0.00 0.00 0.00 0.01 0.01 0.01 0.01 0.01 0.01 0.01 0.02 0.04 0.06 0.06 0.06 0.08 0.12 0.16 0.18 0.18 0.17 0.16 0.13 0.11 0.08 0.05 0.04 0.03 0.02 0.01 0.01 0.01 0.01 0.01 0.01 0.01 0.01 0.01 0.00
0.00 0.00 0.00 0.00 0.00 0.00 0.00 0.00 0.02 0.01 0.00 0.00 0.00 0.01 0.01 0.01 0.01 0.01 0.01 0.02 0.02 0.03 0.04 0.04 0.05 0.07 0.09 0.12 0.15 0.15 0.15 0.15 0.12 0.09 0.05 0.03 0.02 0.01 0.01 0.00 0.00 0.00 0.00 0.00 0.00 0.00 0.00 0.00 0.01
0.00 0.00 0.00 0.00 0.00 0.00 0.00 0.01 0.02 0.01 0.01 0.01 0.01 0.01 0.01 0.01 0.01 0.02 0.02 0.02 0.02 0.03 0.03 0.03 0.04 0.06 0.08 0.10 0.12 0.11 0.10 0.08 0.06 0.03 0.01 0.01 0.00 0.00 0.00 0.00 0.00 0.00 0.00 0.00 0.00 0.00 0.00 0.01 0.01
0.00 0.00 0.00 0.00 0.00 0.00 0.00 0.01 0.03 0.03 0.02 0.02 0.01 0.01 0.01 0.02 0.02 0.02 0.02 0.03 0.03 0.03 0.03 0.04 0.04 0.05 0.06 0.07 0.07 0.06 0.04 0.03 0.02 0.01 0.00 0.00 0.00 0.00 0.00 0.00 0.00 0.00 0.00 0.00 0.00 0.00 0.00 0.01 0.01
0.00 0.00 0.00 0.00 0.00 0.00 0.00 0.04 0.06 0.07 0.07 0.05 0.04 0.01 0.01 0.01 0.02 0.02 0.02 0.03 0.03 0.03 0.04 0.06 0.06 0.06 0.05 0.05 0.04 0.03 0.02 0.01 0.00 0.00 0.00 0.00 0.00 0.00 0.00 0.00 0.00 0.00 0.00 0.00 0.00 0.00 0.00 0.00 0.00
0.00 0.00 0.00 0.00 0.00 0.00 0.01 0.08 0.08 0.16 0.19 0.13 0.06 0.02 0.02 0.01 0.01 0.02 0.02 0.03 0.03 0.04 0.05 0.05 0.04 0.04 0.04 0.03 0.03 0.02 0.01 0.01 0.00 0.00 0.00 0.00 0.00 0.00 0.00 0.00 0.00 0.00 0.00 0.00 0.00 0.00 0.00 0.00 0.00
MSLP
1008.66 1009.00 1009.47 1009.92 1010.22 1010.29 1010.08 1009.62 1009.01 1008.36 1007.79 1007.39 1007.21 1007.24 1007.42 1007.68 1007.95 1008.20 1008.41 1008.62 1008.88 1009.23 1009.69 1010.27 1010.93 1011.59 1012.20 1012.70 1013.07 1013.32 1013.52 1013.72 1013.97 1014.31 1014.74 1015.22 1015.71 1016.13 1016.46 1016.67 1016.78 1016.83 1016.87 1016.93 1017.04 1017.18 1017.35 1017.49 1017.57
1009.08 1009.55 1010.04 1010.42 1010.55 1010.38 1009.89 1009.17 1008.32 1007.49 1006.82 1006.38 1006.21 1006.29 1006.53 1006.86 1007.21 1007.52 1007.80 1008.09 1008.43 1008.89 1009.47 1010.16 1010.92 1011.67 1012.32 1012.84 1013.21 1013.46 1013.63 1013.81 1014.06 1014.40 1014.85 1015.35 1015.85 1016.30 1016.64 1016.85 1016.96 1017.01 1017.05 1017.12 1017.25 1017.42 1017.61 1017.76 1017.85
1009.57 1010.13 1010.61 1010.87 1010.82 1010.40 1009.66 1008.70 1007.66 1006.72 1005.99 1005.56 1005.44 1005.57 1005.88 1006.26 1006.63 1006.97 1007.27 1007.60 1008.00 1008.52 1009.20 1010.00 1010.87 1011.71 1012.45 1013.03 1013.44 1013.69 1013.87 1014.03 1014.26 1014.59 1015.02 1015.51 1015.99 1016.42 1016.75 1016.96 1017.08 1017.15 1017.21 1017.32 1017.48 1017.69 1017.90 1018.07 1018.16
1010.06 1010.65 1011.07 1011.20 1010.94 1010.30 1009.35 1008.22 1007.08 1006.09 1005.38 1005.01 1004.97 1005.18 1005.54 1005.96 1006.34 1006.67 1006.96 1007.27 1007.68 1008.24 1008.98 1009.87 1010.83 1011.77 1012.61 1013.27 1013.73 1014.03 1014.23 1014.39 1014.61 1014.91 1015.29 1015.74 1016.19 1016.58 1016.89 1017.09 1017.22 1017.31 1017.41 1017.56 1017.76 1018.00 1018.24 1018.42 1018.49
1010.47 1011.03 1011.35 1011.31 1010.87 1010.05 1008.95 1007.74 1006.57 1005.62 1005.00 1004.74 1004.81 1005.11 1005.54 1005.98 1006.36 1006.65 1006.89 1007.17 1007.55 1008.11 1008.88 1009.81 1010.85 1011.87 1012.79 1013.53 1014.07 1014.43 1014.66 1014.84 1015.04 1015.31 1015.66 1016.05 1016.45 1016.81 1017.08 1017.28 1017.41 1017.53 1017.66 1017.84 1018.07 1018.33 1018.57 1018.73 1018.79
1010.73 1011.19 1011.36 1011.16 1010.55 1009.61 1008.44 1007.22 1006.11 1005.27 1004.79 1004.68 1004.89 1005.30 1005.79 1006.25 1006.61 1006.86 1007.05 1007.27 1007.61 1008.14 1008.89 1009.84 1010.90 1011.97 1012.95 1013.76 1014.36 1014.78 1015.06 1015.27 1015.48 1015.74 1016.05 1016.40 1016.75 1017.07 1017.32 1017.50 1017.64 1017.76 1017.92 1018.12 1018.36 1018.61 1018.83 1018.96 1018.97
1010.79 1011.10 1011.10 1010.74 1010.02 1009.00 1007.84 1006.68 1005.69 1005.01 1004.69 1004.74 1005.08 1005.58 1006.13 1006.60 1006.95 1007.16 1007.31 1007.48 1007.77 1008.26 1008.98 1009.89 1010.94 1012.02 1013.01 1013.85 1014.51 1014.98 1015.30 1015.56 1015.79 1016.06 1016.36 1016.69 1017.01 1017.29 1017.52 1017.69 1017.83 1017.96 1018.12 1018.31 1018.54 1018.76 1018.94 1019.02 1018.98
1010.62 1010.77 1010.61 1010.12 1009.32 1008.30 1007.19 1006.14 1005.31 1004.79 1004.64 1004.81 1005.25 1005.81 1006.39 1006.87 1007.21 1007.40 1007.53 1007.68 1007.94 1008.39 1009.06 1009.92 1010.92 1011.95 1012.92 1013.76 1014.43 1014.94 1015.31 1015.61 1015.88 1016.17 1016.49 1016.81 1017.12 1017.39 1017.61 1017.77 1017.91 1018.03 1018.18 1018.36 1018.55 1018.73 1018.85 1018.88 1018.80
1010.26 1010.25 1009.95 1009.38 1008.56 1007.59 1006.58 1005.68 1005.00 1004.62 1004.58 1004.83 1005.30 1005.88 1006.44 1006.91 1007.24 1007.44 1007.58 1007.74 1008.00 1008.43 1009.06 1009.87 1010.79 1011.75 1012.66 1013.46 1014.11 1014.62 1015.03 1015.37 1015.69 1016.02 1016.36 1016.71 1017.03 1017.30 1017.52 1017.68 1017.81 1017.93 1018.07 1018.22 1018.38 1018.51 1018.59 1018.58 1018.46
1009.76 1009.61 1009.23 1008.62 1007.84 1006.97 1006.10 1005.35 1004.80 1004.53 1004.53 1004.78 1005.21 1005.72 1006.22 1006.65 1006.97 1007.19 1007.37 1007.58 1007.88 1008.33 1008.94 1009.70 1010.54 1011.41 1012.24 1012.97 1013.58 1014.08 1014.50 1014.88 1015.24 1015.61 1015.99 1016.36 1016.70 1016.99 1017.22 1017.40 1017.53 1017.66 1017.78 1017.92 1018.05 1018.15 1018.20 1018.17 1018.04
1009.19 1008.95 1008.53 1007.96 1007.27 1006.53 1005.82 1005.21 1004.76 1004.53 1004.51 1004.67 1004.98 1005.36 1005.74 1006.10 1006.39 1006.64 1006.89 1007.18 1007.56 1008.06 1008.68 1009.41 1010.20 1010.99 1011.72 1012.38 1012.93 1013.41 1013.82 1014.21 1014.60 1015.01 1015.42 1015.82 1016.19 1016.50 1016.76 1016.95 1017.11 1017.25 1017.38 1017.52 1017.64 1017.74 1017.79 1017.76 1017.66
1008.62 1008.34 1007.94 1007.44 1006.88 1006.30 1005.75 1005.27 1004.88 1004.64 1004.52 1004.54 1004.65 1004.84 1005.06 1005.31 1005.56 1005.84 1006.17 1006.56 1007.05 1007.63 1008.31 1009.04 1009.80 1010.53 1011.20 1011.78 1012.28 1012.72 1013.12 1013.52 1013.92 1014.34 1014.77 1015.19 1015.58 1015.92 1016.21 1016.44 1016.63 1016.79 1016.96 1017.12 1017.27 1017.39 1017.46 1017.47 1017.41
1008.12 1007.83 1007.48 1007.08 1006.67 1006.26 1005.86 1005.48 1005.13 1004.82 1004.57 1004.39 1004.27 1004.23 1004.27 1004.39 1004.59 1004.89 1005.29 1005.79 1006.40 1007.09 1007.85 1008.63 1009.39 1010.10 1010.73 1011.27 1011.74 1012.15 1012.54 1012.92 1013.32 1013.74 1014.17 1014.60 1015.00 1015.37 1015.68 1015.95 1016.18 1016.40 1016.61 1016.81 1017.01 1017.17 1017.30 1017.37 1017.37
1007.75 1007.46 1007.16 1006.87 1006.60 1006.34 1006.06 1005.76 1005.41 1005.02 1004.62 1004.23 1003.88 1003.61 1003.46 1003.45 1003.59 1003.89 1004.36 1004.96 1005.68 1006.49 1007.34 1008.19 1008.99 1009.73 1010.36 1010.91 1011.37 1011.78 1012.15 1012.52 1012.91 1013.31 1013.73 1014.15 1014.56 1014.94 1015.28 1015.59 1015.87 1016.15 1016.41 1016.67 1016.92 1017.15 1017.33 1017.47 1017.55
1007.50 1007.21 1006.95 1006.75 1006.59 1006.44 1006.26 1005.99 1005.63 1005.16 1004.61 1004.04 1003.49 1003.03 1002.72 1002.59 1002.68 1002.98 1003.49 1004.16 1004.98 1005.88 1006.81 1007.74 1008.61 1009.40 1010.09 1010.68 1011.17 1011.60 1011.99 1012.36 1012.73 1013.11 1013.51 1013.91 1014.31 1014.69 1015.06 1015.41 1015.74 1016.07 1016.39 1016.71 1017.01 1017.30 1017.54 1017.74 1017.88
1007.37 1007.05 1006.82 1006.67 1006.58 1006.49 1006.35 1006.10 1005.70 1005.16 1004.51 1003.80 1003.11 1002.53 1002.11 1001.90 1001.95 1002.25 1002.77 1003.49 1004.35 1005.31 1006.31 1007.30 1008.24 1009.10 1009.87 1010.53 1011.09 1011.58 1012.00 1012.39 1012.76 1013.12 1013.50 1013.88 1014.26 1014.65 1015.03 1015.41 1015.79 1016.16 1016.53 1016.89 1017.24 1017.56 1017.85 1018.09 1018.29
1007.33 1006.98 1006.74 1006.60 1006.52 1006.45 1006.31 1006.05 1005.61 1005.02 1004.30 1003.53 1002.78 1002.15 1001.69 1001.46 1001.50 1001.79 1002.31 1003.02 1003.88 1004.85 1005.86 1006.88 1007.87 1008.80 1009.65 1010.41 1011.06 1011.63 1012.11 1012.53 1012.92 1013.28 1013.64 1014.01 1014.38 1014.77 1015.16 1015.57 1015.97 1016.37 1016.77 1017.16 1017.53 1017.88 1018.19 1018.46 1018.69
1007.34 1006.96 1006.70 1006.55 1006.46 1006.36 1006.18 1005.87 1005.39 1004.77 1004.03 1003.26 1002.54 1001.94 1001.53 1001.34 1001.40 1001.69 1002.18 1002.85 1003.66 1004.56 1005.53 1006.53 1007.53 1008.50 1009.42 1010.26 1011.02 1011.68 1012.24 1012.73 1013.15 1013.53 1013.89 1014.25 1014.62 1015.01 1015.41 1015.83 1016.25 1016.67 1017.08 1017.47 1017.84 1018.19 1018.50 1018.79 1019.03
1007.38 1007.01 1006.74 1006.56 1006.43 1006.27 1006.03 1005.66 1005.14 1004.50 1003.80 1003.10 1002.47 1001.99 1001.69 1001.59 1001.71 1002.01 1002.47 1003.06 1003.76 1004.54 1005.40 1006.31 1007.26 1008.23 1009.19 1010.10 1010.94 1011.69 1012.35 1012.90 1013.38 1013.79 1014.18 1014.55 1014.93 1015.33 1015.74 1016.16 1016.58 1017.00 1017.39 1017.77 1018.13 1018.46 1018.77 1019.05 1019.30
1007.43 1007.11 1006.87 1006.69 1006.52 1006.30 1005.98 1005.54 1004.99 1004.36 1003.71 1003.13 1002.66 1002.35 1002.21 1002.26 1002.46 1002.79 1003.21 1003.70 1004.25 1004.86 1005.55 1006.31 1007.16 1008.07 1009.01 1009.95 1010.85 1011.68 1012.42 1013.06 1013.60 1014.06 1014.48 1014.88 1015.28 1015.68 1016.10 1016.52 1016.94 1017.34 1017.71 1018.06 1018.39 1018.70 1018.99 1019.26 1019.51
1007.48 1007.27 1007.11 1006.96 1006.78 1006.50 1006.12 1005.62 1005.04 1004.44 1003.88 1003.44 1003.16 1003.06 1003.14 1003.35 1003.67 1004.03 1004.40 1004.78 1005.16 1005.57 1006.04 1006.61 1007.30 1008.09 1008.97 1009.90 1010.83 1011.71 1012.52 1013.22 1013.82 1014.34 1014.81 1015.24 1015.66 1016.08 1016.50 1016.91 1017.31 1017.69 1018.04 1018.35 1018.64 1018.92 1019.20 1019.46 1019.72
1007.51 1007.47 1007.44 1007.37 1007.20 1006.91 1006.48 1005.95 1005.36 1004.80 1004.35 1004.07 1003.99 1004.12 1004.42 1004.82 1005.25 1005.66 1005.99 1006.25 1006.45 1006.64 1006.89 1007.24 1007.73 1008.38 1009.16 1010.03 1010.95 1011.85 1012.69 1013.45 1014.11 1014.68 1015.18 1015.64 1016.08 1016.52 1016.94 1017.34 1017.72 1018.06 1018.38 1018.66 1018.91 1019.17 1019.42 1019.69 1019.95
1007.50 1007.67 1007.80 1007.84 1007.74 1007.46 1007.02 1006.48 1005.91 1005.42 1005.08 1004.97 1005.10 1005.44 1005.95 1006.52 1007.07 1007.52 1007.83 1007.98 1008.02 1008.01 1008.04 1008.17 1008.46 1008.95 1009.60 1010.40 1011.27 1012.16 1013.01 1013.80 1014.49 1015.09 1015.62 1016.11 1016.56 1017.00 1017.41 1017.80 1018.15 1018.47 1018.74 1018.99 1019.21 1019.44 1019.68 1019.94 1020.21
1007.43 1007.80 1008.11 1008.28 1008.26 1008.03 1007.63 1007.12 1006.60 1006.19 1005.98 1006.03 1006.35 1006.90 1007.59 1008.31 1008.96 1009.45 1009.73 1009.80 1009.71 1009.53 1009.37 1009.31 1009.43 1009.76 1010.30 1011.00 1011.81 1012.66 1013.50 1014.29 1014.99 1015.60 1016.15 1016.64 1017.09 1017.52 1017.92 1018.28 1018.61 1018.89 1019.13 1019.34 1019.54 1019.75 1019.97 1020.22 1020.49
1007.28 1007.82 1008.28 1008.57 1008.65 1008.49 1008.15 1007.72 1007.29 1006.99 1006.92 1007.13 1007.62 1008.33 1009.16 1010.01 1010.73 1011.25 1011.51 1011.52 1011.34 1011.05 1010.75 1010.56 1010.55 1010.76 1011.19 1011.80 1012.54 1013.35 1014.15 1014.91 1015.60 1016.20 1016.73 1017.21 1017.65 1018.06 1018.43 1018.77 1019.07 1019.32 1019.53 1019.71 1019.88 1020.06 1020.27 1020.50 1020.75
1007.06 1007.70 1008.26 1008.64 1008.79 1008.73 1008.48 1008.15 1007.84 1007.69 1007.77 1008.13 1008.76 1009.60 1010.54 1011.46 1012.23 1012.76 1013.01 1012.99 1012.75 1012.40 1012.04 1011.77 1011.69 1011.82 1012.19 1012.74 1013.42 1014.17 1014.93 1015.64 1016.28 1016.85 1017.35 1017.80 1018.21 1018.59 1018.94 1019.25 1019.52 1019.74 1019.93 1020.08 1020.22 1020.37 1020.54 1020.75 1020.97
1006.79 1007.45 1008.03 1008.45 1008.66 1008.68 1008.54 1008.35 1008.19 1008.20 1008.44 1008.95 1009.70 1010.63 1011.63 1012.59 1013.37 1013.90 1014.13 1014.10 1013.85 1013.49 1013.12 1012.85 1012.76 1012.88 1013.22 1013.73 1014.37 1015.06 1015.76 1016.42 1017.01 1017.52 1017.97 1018.38 1018.75 1019.10 1019.41 1019.70 1019.95 1020.15 1020.31 1020.44 1020.55 1020.67 1020.80 1020.96 1021.13
1006.53 1007.13 1007.66 1008.06 1008.31 1008.39 1008.37 1008.33 1008.35 1008.53 1008.93 1009.58 1010.43 1011.42 1012.44 1013.39 1014.15 1014.65 1014.88 1014.84 1014.62 1014.30 1013.98 1013.76 1013.72 1013.87 1014.22 1014.72 1015.33 1015.98 1016.62 1017.21 1017.73 1018.18 1018.57 1018.92 1019.25 1019.56 1019.86 1020.12 1020.36 1020.55 1020.69 1020.80 1020.89 1020.96 1021.04 1021.14 1021.26
1006.39 1006.85 1007.27 1007.62 1007.85 1008.00 1008.09 1008.20 1008.40 1008.76 1009.32 1010.09 1011.01 1012.03 1013.04 1013.94 1014.65 1015.12 1015.32 1015.30 1015.12 1014.87 1014.64 1014.52 1014.56 1014.78 1015.17 1015.69 1016.27 1016.88 1017.46 1017.98 1018.42 1018.80 1019.12 1019.42 1019.71 1020.00 1020.27 1020.53 1020.76 1020.95 1021.09 1021.19 1021.24 1021.28 1021.31 1021.34 1021.38
1006.44 1006.73 1007.02 1007.28 1007.49 1007.67 1007.87 1008.13 1008.50 1009.04 1009.74 1010.61 1011.58 1012.59 1013.56 1014.40 1015.04 1015.44 1015.62 1015.61 1015.49 1015.33 1015.21 1015.20 1015.35 1015.65 1016.09 1016.62 1017.20 1017.76 1018.27 1018.72 1019.08 1019.39 1019.65 1019.90 1020.16 1020.42 1020.69 1020.95 1021.19 1021.38 1021.52 1021.61 1021.64 1021.64 1021.61 1021.57 1021.54
Thickness
5804 5814 5822 5819 5805 5799 5803 5816 5831 5829 5831 5843 5847 5841 5831 5820 5807 5792 5824 5838 5831 5819 5809 5801 5796 5792 5788 5785 5782 5779 5776 5773 5770 5768 5766 5764 5762 5760 5759 5757 5755 5753 5752 5750 5749 5748 5747 5747 5746
5802 5813 5813 5805 5788 5782 5795 5816 5824 5831 5839 5849 5848 5842 5833 5824 5831 5826 5829 5832 5827 5816 5807 5800 5794 5790 5786 5783 5780 5776 5773 5770 5768 5765 5763 5761 5759 5757 5754 5753 5751 5749 5748 5746 5745 5744 5743 5743 5742
5796 5806 5794 5790 5784 5784 5790 5813 5826 5839 5847 5846 5841 5843 5834 5825 5832 5829 5831 5831 5824 5814 5806 5797 5792 5788 5784 5780 5777 5774 5771 5768 5765 5763 5760 5758 5756 5753 5751 5749 5747 5745 5744 5743 5741 5740 5739 5739 5738
5792 5793 5789 5778 5779 5803 5812 5818 5833 5837 5844 5847 5841 5833 5835 5841 5840 5836 5834 5831 5821 5813 5805 5795 5791 5786 5782 5778 5775 5772 5769 5766 5763 5760 5757 5755 5753 5750 5748 5746 5744 5742 5741 5739 5738 5737 5736 5735 5735
5787 5777 5765 5765 5782 5808 5823 5830 5838 5834 5836 5842 5840 5828 5824 5840 5845 5839 5833 5828 5820 5813 5804 5794 5789 5785 5780 5776 5773 5770 5767 5764 5761 5758 5755 5752 5750 5747 5745 5743 5741 5739 5738 5736 5735 5734 5733 5733 5732
5773 5771 5753 5758 5782 5809 5827 5838 5839 5836 5840 5844 5841 5829 5824 5839 5837 5834 5832 5827 5823 5814 5803 5793 5787 5783 5779 5775 5771 5768 5765 5762 5758 5755 5753 5750 5747 5745 5742 5740 5738 5736 5735 5733 5731 5730 5730 5730 5730
5766 5762 5757 5767 5781 5801 5824 5843 5839 5835 5836 5843 5846 5828 5825 5834 5836 5836 5832 5829 5824 5816 5803 5793 5787 5782 5777 5773 5769 5766 5763 5760 5756 5753 5750 5748 5745 5742 5740 5738 5736 5734 5732 5730 5729 5728 5728 5727 5727
5777 5765 5759 5769 5778 5795 5826 5839 5843 5838 5837 5853 5851 5829 5819 5830 5838 5837 5832 5828 5823 5816 5805 5797 5790 5783 5778 5772 5768 5765 5761 5758 5755 5752 5749 5746 5744 5741 5739 5737 5734 5732 5730 5729 5727 5726 5726 5726 5726
5779 5757 5755 5770 5782 5801 5827 5830 5841 5850 5843 5845 5848 5843 5838 5838 5838 5832 5826 5823 5819 5814 5808 5801 5793 5786 5781 5775 5769 5764 5760 5757 5754 5751 5748 5745 5744 5742 5739 5737 5734 5731 5729 5727 5726 5725 5725 5724 5725
5772 5755 5765 5786 5800 5810 5823 5829 5835 5836 5832 5833 5838 5842 5842 5836 5832 5826 5821 5817 5814 5811 5809 5806 5797 5790 5785 5780 5771 5766 5762 5757 5754 5752 5748 5746 5746 5744 5741 5737 5734 5731 5728 5726 5725 5724 5724 5723 5724
5773 5765 5780 5794 5807 5813 5813 5823 5833 5826 5822 5833 5836 5836 5838 5833 5830 5827 5823 5821 5817 5814 5811 5808 5801 5795 5790 5784 5774 5770 5766 5760 5756 5754 5750 5747 5747 5745 5741 5737 5732 5729 5727 5726 5724 5723 5722 5723 5724
5772 5778 5787 5794 5806 5806 5805 5813 5819 5823 5829 5847 5851 5846 5840 5832 5831 5829 5826 5823 5820 5815 5813 5811 5805 5797 5793 5788 5780 5775 5770 5764 5760 5756 5752 5749 5747 5745 5742 5737 5733 5730 5728 5726 5725 5723 5723 5723 5724
5771 5776 5788 5796 5799 5802 5803 5804 5810 5820 5838 5847 5846 5838 5832 5831 5832 5834 5834 5828 5823 5816 5813 5812 5807 5799 5794 5789 5783 5778 5773 5768 5764 5759 5754 5750 5747 5744 5742 5737 5733 5731 5728 5725 5723 5722 5722 5721 5719
5777 5782 5785 5792 5795 5798 5793 5799 5805 5815 5834 5838 5837 5829 5834 5832 5833 5833 5832 5827 5823 5818 5814 5813 5807 5800 5794 5788 5783 5779 5774 5769 5766 5760 5755 5750 5747 5743 5739 5734 5730 5727 5725 5723 5720 5718 5716 5714 5712
5778 5772 5777 5787 5791 5794 5792 5785 5799 5820 5830 5830 5833 5831 5833 5836 5834 5834 5833 5829 5826 5820 5816 5812 5807 5800 5793 5787 5782 5779 5775 5770 5766 5761 5754 5749 5746 5742 5736 5731 5726 5722 5720 5718 5714 5711 5709 5706 5705
5767 5758 5756 5780 5791 5794 5783 5773 5807 5825 5826 5826 5832 5837 5837 5838 5836 5836 5834 5831 5829 5823 5816 5812 5808 5799 5792 5786 5781 5779 5774 5769 5763 5759 5754 5748 5743 5738 5733 5728 5723 5718 5713 5710 5707 5703 5699 5697 5696
5749 5745 5754 5776 5797 5795 5784 5780 5809 5830 5826 5824 5830 5835 5836 5836 5836 5835 5830 5828 5828 5824 5817 5810 5806 5798 5790 5784 5778 5775 5771 5766 5760 5756 5751 5746 5741 5735 5730 5725 5719 5713 5708 5704 5700 5696 5692 5688 5687
5741 5751 5761 5775 5799 5793 5784 5787 5806 5827 5827 5825 5828 5832 5835 5834 5834 5836 5833 5830 5825 5821 5815 5809 5802 5796 5789 5781 5775 5770 5765 5761 5756 5751 5747 5744 5738 5732 5725 5719 5713 5708 5702 5697 5693 5688 5685 5682 5679
5754 5761 5769 5786 5807 5791 5783 5787 5801 5819 5822 5821 5824 5827 5830 5829 5833 5835 5832 5824 5819 5813 5809 5804 5797 5792 5785 5777 5769 5762 5757 5753 5749 5744 5739 5735 5730 5726 5720 5713 5707 5701 5696 5691 5686 5683 5679 5675 5672
5745 5746 5760 5784 5800 5786 5777 5781 5799 5812 5816 5818 5817 5818 5818 5815 5814 5820 5819 5813 5809 5804 5803 5798 5793 5787 5781 5774 5768 5761 5754 5747 5741 5735 5730 5725 5721 5717 5712 5706 5700 5694 5689 5684 5679 5675 5672 5668 5664
5736 5739 5751 5765 5782 5780 5768 5765 5782 5800 5811 5812 5813 5812 5811 5806 5801 5802 5803 5799 5800 5797 5796 5794 5789 5782 5775 5769 5760 5752 5744 5737 5730 5724 5719 5714 5710 5707 5702 5698 5693 5687 5683 5677 5673 5669 5664 5659 5655
5725 5744 5749 5753 5754 5755 5760 5742 5770 5787 5791 5794 5796 5798 5797 5794 5791 5790 5786 5783 5786 5788 5788 5787 5781 5774 5768 5761 5752 5744 5736 5727 5721 5715 5709 5704 5700 5695 5691 5687 5682 5678 5674 5669 5664 5660 5656 5652 5647
5730 5745 5745 5744 5742 5741 5753 5745 5765 5789 5776 5778 5780 5780 5776 5774 5773 5772 5771 5770 5771 5773 5774 5773 5768 5760 5755 5750 5743 5735 5728 5720 5712 5706 5699 5693 5688 5683 5679 5676 5672 5668 5663 5658 5653 5649 5645 5642 5637
5736 5734 5734 5737 5734 5718 5738 5739 5752 5777 5778 5770 5763 5759 5756 5755 5755 5755 5755 5755 5755 5757 5756 5753 5750 5744 5740 5735 5730 5723 5716 5709 5701 5694 5687 5681 5675 5671 5667 5663 5660 5656 5651 5646 5642 5638 5633 5629 5625
5726 5712 5699 5701 5706 5717 5747 5742 5750 5766 5771 5759 5747 5741 5739 5739 5737 5735 5734 5735 5735 5736 5734 5732 5730 5725 5723 5719 5714 5709 5703 5696 5689 5682 5676 5670 5663 5658 5654 5651 5647 5642 5638 5634 5630 5625 5620 5616 5612
5718 5713 5695 5694 5707 5728 5752 5746 5747 5754 5752 5745 5737 5730 5726 5722 5720 5716 5715 5715 5715 5716 5715 5714 5712 5707 5705 5701 5697 5693 5688 5682 5674 5668 5662 5656 5650 5645 5641 5637 5633 5628 5625 5621 5616 5612 5607 5602 5598
5716 5714 5724 5713 5716 5716 5737 5739 5728 5738 5731 5726 5721 5715 5708 5703 5701 5698 5697 5697 5697 5697 5697 5696 5695 5691 5688 5684 5680 5676 5670 5665 5659 5653 5648 5642 5637 5632 5627 5623 5619 5614 5610 5606 5601 5597 5593 5588 5584
5725 5725 5715 5705 5695 5698 5723 5725 5717 5716 5712 5708 5702 5695 5689 5685 5683 5681 5681 5681 5680 5681 5680 5680 5678 5675 5671 5668 5664 5659 5654 5649 5644 5638 5633 5628 5623 5618 5613 5608 5604 5599 5595 5591 5586 5582 5578 5574 5569
5711 5712 5713 5712 5714 5702 5702 5702 5724 5715 5705 5694 5687 5680 5674 5670 5667 5666 5666 5667 5667 5666 5665 5663 5661 5658 5655 5651 5647 5642 5637 5633 5628 5622 5617 5612 5608 5603 5598 5593 5589 5585 5580 5575 5570 5566 5563 5558 5553
5718 5714 5710 5694 5698 5709 5705 5688 5716 5706 5692 5679 5669 5664 5660 5657 5655 5654 5654 5653 5653 5652 5650 5648 5646 5642 5638 5635 5631 5626 5622 5617 5612 5607 5601 5596 5592 5587 5583 5579 5574 5570 5565 5560 5555 5551 5546 5542 5536